This is the latest recevied weather packets stored in our database for station/object KM4KMS. If no packets are shown the sender has not sent any weather packets the latest 10 day(s).
| Time | Temp. | Humidity | Pressure | Rain* | Wind** | Luminosity | Snow |
|---|---|---|---|---|---|---|---|
| 1778096967 | 16.67° C | 62% | 1012.6 hPa | 0 mm | - | 302 W/m² | - |
| 1778096665 | 16.11° C | 56% | 1012.2 hPa | 0 mm | - | 326 W/m² | - |
| 1778096362 | 16.67° C | 55% | 1012.4 hPa | 0 mm | - | 402 W/m² | - |
| 1778096059 | 16.67° C | 59% | 1012.3 hPa | 0 mm | - | 677 W/m² | - |
| 1778095755 | 16.67° C | 58% | 1012.3 hPa | 0 mm | - | 480 W/m² | - |
| 1778095452 | 17.22° C | 60% | 1011.9 hPa | 0 mm | - | 596 W/m² | - |
| 1778095149 | 16.11° C | 61% | 1012.1 hPa | 0 mm | - | 553 W/m² | - |
| 1778094845 | 16.67° C | 60% | 1012 hPa | 0 mm | - | 435 W/m² | - |
| 1778094543 | 16.67° C | 62% | 1012.3 hPa | 0 mm | - | 408 W/m² | - |
| 1778094239 | 16.67° C | 65% | 1012.1 hPa | 0 mm | - | 481 W/m² | - |
| 1778093936 | 16.67° C | 60% | 1012.3 hPa | 0 mm | - | 664 W/m² | - |
| 1778093633 | 16.67° C | 63% | 1012.4 hPa | 0 mm | - | 369 W/m² | - |
| 1778093330 | 16.67° C | 59% | 1012.3 hPa | 0 mm | - | 411 W/m² | - |
| 1778093027 | 17.78° C | 66% | 1011.9 hPa | 0 mm | - | 574 W/m² | - |
| 1778092724 | 16.11° C | 64% | 1012 hPa | 0 mm | - | 669 W/m² | - |
| 1778092419 | 15.56° C | 63% | 1012 hPa | 0 mm | - | 666 W/m² | - |
| 1778092117 | 15.56° C | 68% | 1011.7 hPa | 0 mm | - | 689 W/m² | - |
| 1778091814 | 16.67° C | 63% | 1011.9 hPa | 0 mm | - | 727 W/m² | - |
| 1778091511 | 16.11° C | 64% | 1011.9 hPa | 0 mm | - | 653 W/m² | - |
| 1778091209 | 16.67° C | 62% | 1012 hPa | 0 mm | - | 711 W/m² | - |
| 1778090906 | 16.67° C | 62% | 1012.2 hPa | 0 mm | - | 699 W/m² | - |
| 1778090602 | 16.67° C | 60% | 1011.9 hPa | 0 mm | - | 691 W/m² | - |
| 1778090298 | 16.11° C | 63% | 1012 hPa | 0 mm | - | 673 W/m² | - |
| 1778089995 | 16.11° C | 67% | 1011.8 hPa | 0 mm | - | 671 W/m² | - |
| 1778089693 | 15.56° C | 69% | 1011.8 hPa | 0 mm | - | 663 W/m² | - |
* Rain latest hour (hover to see other rain measurements)
** Current wind speed in m/s (hover to see current wind gust speed)